TimeCST,TemperatureF,Dew PointF,Humidity,Sea Level PressureIn,VisibilityMPH,Wind Direction,Wind SpeedMPH,Gust SpeedMPH,PrecipitationIn,Events,Conditions,WindDirDegrees,DateUTC
12:02 AM,12.2,6.8,79,30.08,10.0,North,5.8,-,N/A,Snow,Light Snow,360,2012-12-23 06:02:00
12:22 AM,12.2,6.8,79,30.08,10.0,North,4.6,-,N/A,,Mostly Cloudy,10,2012-12-23 06:22:00
12:42 AM,12.2,6.8,79,30.08,10.0,North,3.5,-,N/A,,Mostly Cloudy,360,2012-12-23 06:42:00
1:02 AM,12.2,6.8,79,30.08,10.0,North,5.8,-,N/A,,Scattered Clouds,10,2012-12-23 07:02:00
1:22 AM,10.4,5.0,79,30.09,10.0,North,3.5,-,N/A,,Clear,350,2012-12-23 07:22:00
1:42 AM,10.4,5.0,79,30.09,10.0,North,4.6,-,N/A,,Mostly Cloudy,360,2012-12-23 07:42:00
2:02 AM,10.4,5.0,79,30.10,10.0,North,3.5,-,N/A,,Scattered Clouds,360,2012-12-23 08:02:00
2:22 AM,10.4,5.0,79,30.10,10.0,North,3.5,-,N/A,,Clear,360,2012-12-23 08:22:00
2:42 AM,8.6,5.0,85,30.10,10.0,North,3.5,-,N/A,,Clear,360,2012-12-23 08:42:00
3:02 AM,10.4,5.0,79,30.11,10.0,North,5.8,-,N/A,,Clear,10,2012-12-23 09:02:00
3:22 AM,10.4,5.0,79,30.11,10.0,North,4.6,-,N/A,,Mostly Cloudy,360,2012-12-23 09:22:00
3:42 AM,8.6,5.0,85,30.12,10.0,North,4.6,-,N/A,,Overcast,10,2012-12-23 09:42:00
4:02 AM,10.4,5.0,79,30.12,10.0,North,4.6,-,N/A,,Overcast,360,2012-12-23 10:02:00
4:22 AM,10.4,5.0,79,30.12,10.0,North,4.6,-,N/A,,Overcast,360,2012-12-23 10:22:00
4:42 AM,10.4,5.0,79,30.13,10.0,North,3.5,-,N/A,,Overcast,360,2012-12-23 10:42:00
5:02 AM,10.4,5.0,79,30.13,10.0,Calm,Calm,-,N/A,,Overcast,0,2012-12-23 11:02:00
5:22 AM,8.6,5.0,85,30.13,10.0,Calm,Calm,-,N/A,,Scattered Clouds,0,2012-12-23 11:22:00
5:42 AM,10.4,5.0,79,30.13,10.0,Calm,Calm,-,N/A,Snow,Light Snow,0,2012-12-23 11:42:00
6:02 AM,10.4,5.0,79,30.14,10.0,Calm,Calm,-,N/A,,Mostly Cloudy,0,2012-12-23 12:02:00
6:22 AM,10.4,5.0,79,30.14,10.0,Calm,Calm,-,N/A,,Overcast,0,2012-12-23 12:22:00
6:42 AM,10.4,5.0,79,30.14,10.0,NNE,3.5,-,N/A,,Overcast,30,2012-12-23 12:42:00
7:02 AM,10.4,5.0,79,30.13,10.0,NE,5.8,-,N/A,,Mostly Cloudy,40,2012-12-23 13:02:00
7:22 AM,10.4,5.0,79,30.13,10.0,NNE,3.5,-,N/A,,Clear,20,2012-12-23 13:22:00
7:42 AM,8.6,5.0,85,30.13,10.0,NNE,3.5,-,N/A,,Clear,30,2012-12-23 13:42:00
8:02 AM,8.6,5.0,85,30.14,10.0,North,3.5,-,N/A,,Clear,10,2012-12-23 14:02:00
8:22 AM,8.6,5.0,85,30.15,10.0,Calm,Calm,-,N/A,,Clear,0,2012-12-23 14:22:00
8:42 AM,8.6,3.2,79,30.15,10.0,NW,3.5,-,N/A,,Clear,320,2012-12-23 14:42:00
9:02 AM,8.6,5.0,85,30.16,10.0,NW,3.5,-,N/A,,Clear,320,2012-12-23 15:02:00
9:22 AM,10.4,5.0,79,30.16,10.0,NNW,3.5,-,N/A,,Clear,340,2012-12-23 15:22:00
9:42 AM,12.2,5.0,73,30.16,10.0,North,3.5,-,N/A,,Clear,360,2012-12-23 15:42:00
10:02 AM,12.2,5.0,73,30.16,10.0,NNE,3.5,-,N/A,,Clear,20,2012-12-23 16:02:00
10:21 AM,14.0,6.8,73,30.16,10.0,NE,4.6,-,N/A,,Clear,40,2012-12-23 16:21:00
10:42 AM,14.0,5.0,67,30.16,10.0,Calm,Calm,-,N/A,,Clear,0,2012-12-23 16:42:00
11:02 AM,14.0,5.0,67,30.15,10.0,NE,5.8,-,N/A,,Clear,40,2012-12-23 17:02:00
11:22 AM,14.0,5.0,67,30.14,10.0,ENE,4.6,-,N/A,,Clear,70,2012-12-23 17:22:00
11:42 AM,14.0,5.0,67,30.13,10.0,ENE,5.8,-,N/A,,Clear,60,2012-12-23 17:42:00
12:02 PM,15.8,5.0,62,30.11,10.0,NE,4.6,-,N/A,,Clear,40,2012-12-23 18:02:00
12:22 PM,15.8,5.0,62,30.11,10.0,NE,4.6,-,N/A,,Clear,50,2012-12-23 18:22:00
12:42 PM,17.6,6.8,63,30.10,10.0,ENE,5.8,-,N/A,,Scattered Clouds,60,2012-12-23 18:42:00
1:02 PM,17.6,5.0,58,30.10,10.0,ENE,5.8,-,N/A,,Mostly Cloudy,60,2012-12-23 19:02:00
1:22 PM,17.6,5.0,58,30.10,10.0,ENE,5.8,-,N/A,,Mostly Cloudy,60,2012-12-23 19:22:00
1:42 PM,17.6,5.0,58,30.09,10.0,ENE,4.6,-,N/A,,Overcast,70,2012-12-23 19:42:00
2:02 PM,17.6,5.0,58,30.09,10.0,NE,5.8,-,N/A,,Overcast,40,2012-12-23 20:02:00
2:22 PM,17.6,5.0,58,30.08,10.0,ENE,3.5,-,N/A,,Overcast,70,2012-12-23 20:22:00
2:42 PM,17.6,5.0,58,30.09,10.0,ENE,4.6,-,N/A,,Mostly Cloudy,60,2012-12-23 20:42:00
3:01 PM,17.6,5.0,58,30.09,10.0,NNE,4.6,-,N/A,,Scattered Clouds,20,2012-12-23 21:01:00
3:22 PM,17.6,5.0,58,30.09,10.0,NE,4.6,-,N/A,,Mostly Cloudy,50,2012-12-23 21:22:00
3:42 PM,17.6,5.0,58,30.09,10.0,NE,3.5,-,N/A,,Overcast,40,2012-12-23 21:42:00
4:02 PM,17.6,5.0,58,30.10,10.0,NE,4.6,-,N/A,,Mostly Cloudy,50,2012-12-23 22:02:00
4:22 PM,17.6,5.0,58,30.10,10.0,NNE,3.5,-,N/A,,Overcast,30,2012-12-23 22:22:00
4:42 PM,17.6,6.8,63,30.10,10.0,NNE,3.5,-,N/A,,Overcast,20,2012-12-23 22:42:00
5:02 PM,17.6,6.8,63,30.11,10.0,Calm,Calm,-,N/A,,Mostly Cloudy,0,2012-12-23 23:02:00
5:22 PM,17.6,8.6,68,30.11,10.0,Calm,Calm,-,N/A,,Scattered Clouds,0,2012-12-23 23:22:00
5:42 PM,17.6,6.8,63,30.10,10.0,Calm,Calm,-,N/A,,Clear,0,2012-12-23 23:42:00
6:02 PM,17.6,6.8,63,30.10,10.0,Calm,Calm,-,N/A,,Clear,0,2012-12-24 00:02:00
6:22 PM,15.8,6.8,68,30.10,10.0,Calm,Calm,-,N/A,,Clear,0,2012-12-24 00:22:00
6:42 PM,14.0,6.8,73,30.09,10.0,Calm,Calm,-,N/A,,Clear,0,2012-12-24 00:42:00
7:02 PM,14.0,6.8,73,30.10,10.0,Calm,Calm,-,N/A,,Clear,0,2012-12-24 01:02:00
7:22 PM,14.0,6.8,73,30.10,10.0,Calm,Calm,-,N/A,,Scattered Clouds,0,2012-12-24 01:22:00
7:41 PM,14.0,8.6,79,30.09,10.0,Calm,Calm,-,N/A,,Scattered Clouds,0,2012-12-24 01:41:00
8:02 PM,14.0,8.6,79,30.07,10.0,Calm,Calm,-,N/A,,Mostly Cloudy,0,2012-12-24 02:02:00
8:22 PM,14.0,8.6,79,30.07,10.0,Calm,Calm,-,N/A,,Mostly Cloudy,0,2012-12-24 02:22:00
9:02 PM,14.0,8.6,79,30.06,10.0,Calm,Calm,-,N/A,,Scattered Clouds,0,2012-12-24 03:02:00
9:21 PM,14.0,8.6,79,30.06,10.0,Calm,Calm,-,N/A,,Clear,0,2012-12-24 03:21:00
9:42 PM,14.0,8.6,79,30.05,10.0,Calm,Calm,-,N/A,,Scattered Clouds,0,2012-12-24 03:42:00
10:01 PM,14.0,8.6,79,30.05,10.0,Calm,Calm,-,N/A,,Overcast,0,2012-12-24 04:01:00
10:22 PM,14.0,8.6,79,30.05,10.0,Calm,Calm,-,N/A,,Mostly Cloudy,0,2012-12-24 04:22:00
10:41 PM,12.2,6.8,79,30.06,10.0,NNW,3.5,-,N/A,,Scattered Clouds,340,2012-12-24 04:41:00
11:02 PM,14.0,8.6,79,30.06,10.0,Calm,Calm,-,N/A,,Overcast,0,2012-12-24 05:02:00
11:22 PM,14.0,8.6,79,30.06,10.0,North,3.5,-,N/A,,Overcast,350,2012-12-24 05:22:00
11:42 PM,14.0,8.6,79,30.06,10.0,Calm,Calm,-,N/A,,Overcast,0,2012-12-24 05:42:00